Location: Coopersdale
(40.3556°N, 78.9372°W)
Time: 09:41:48
(UTC+00:00)

Vanguard 1 - Pass Details

Date: 25 January 2021
Orbit: 649 x 3834 km, 34.2° (Epoch: 07 March)

Event Time Altitude Azimuth Distance (km) Brightness Sun altitude
Rises 23:34:49 0° 283° (WNW) 7,861 15.9 -13.4°
Reaches altitude 10° 23:40:19 10° 279° (W) 6,928 15.5 -14.4°
Maximum altitude 00:02:03 50° 213° (SSW) 3,986 13.3 -18.5°
Drops below altitude 10° 00:17:35 10° 144° (SE) 5,094 13.4 -21.4°
Sets 00:20:56 0° 138° (SE) 5,738 13.7 -22.0°
